2017 Mackinac Island Eight Mile

Mackinac Island, MI
2017-09-09
Starts on: 2017-09-09
Where: Mackinac Island, MI
Categories: 8 Mile Walk 8 Mile Run Kid's Fun Run
Description: Run and walk the 8 mile perimeter of Mackinac Island in this great fall event! Kick off your fall running season with over 1600 participants running the shoreline of the Straits of Mackinac in one of Michigan's oldest races!
Female 8 Mile Run
name bib rank time pace hometown
Julia Viel 1034 1 00:51:08 06:24 BOULDER, CO
Jill Burden 1201 2 00:55:01 06:53 TRAVERSE CITY, MI
Erica Harrell 382 3 00:56:35 07:05 TRAVERSE CITY, MI
Erica Parkinson 1160 4 00:57:07 07:09 TRAVERSE CITY, MI
Tonya Sears 869 5 00:58:29 07:19 HORTON, MI
Linda Humpert 439 6 00:58:55 07:22 Reese, MI
Laura LaPorte 559 7 00:59:35 07:27 TRENTON, MI
Sloane Stimpfel 966 8 00:59:37 07:27 DEFORD, MI
Michele Chudzinski 152 9 00:59:51 07:29 Livonia, MI
Wendy Snyder 930 10 01:00:00 07:30 MORAN, MI
Kate Skarvan 902 11 01:00:37 07:35 LA JOLLA, CA
Jessica Courtright 184 12 01:01:35 07:42 STANWOOD, MI
Stephanie Rasmussen 790 13 01:01:39 07:43 LUDINGTON, MI
Haley White 1078 14 01:01:47 07:44 WATERFORD, MI
Audrey Stempky 960 15 01:02:05 07:46 PETOSKEY, MI
Kate Kiekhaefer 501 16 01:02:10 07:47 Dafter, MI
Carrie King 504 17 01:02:16 07:47 SOUTH LYON, MI
Ashley Pattee 721 18 01:02:24 07:48 GRAND RAPIDS, MI
Kim Kaleto 483 19 01:02:29 07:49 GLADWIN, MI
Abigail Watkins 1054 20 01:02:36 07:50 GRAND RAPIDS, MI
Kate Partlow 719 21 01:03:06 07:54 Clio, MI
Tiela Schurman 866 22 01:03:17 07:55 MIDLAND, MI
Megan Retherford 798 23 01:03:34 07:57 PETOSKEY, MI
Anya Mallinger 600 24 01:03:43 07:58 Sault Ste Marie, --
Katie Waite 1045 25 01:04:03 08:01 KENTWOOD, MI
Paige Waldron 1046 26 01:04:07 08:01 TRAVERSE CITY, MI
Pamela Trombley 1009 27 01:04:12 08:02 REESE, MI
Emily Woodcock 1108 28 01:04:25 08:04 Wayland, MI
Robin Sarris-Hallop 1258 29 01:04:30 08:04 Ann Arbor, MI
Dana Varner 1026 30 01:04:32 08:04 South Bend, IN
Rachael McCoy 1305 31 01:04:40 08:05 Sault Sainte Marie, MI
Nicole Klau 513 32 01:04:43 08:06 Traverse City, MI
Lynne VanHimbergen 1023 33 01:05:01 08:08 MEQUON, WI
Christina Bowerman 1199 34 01:05:07 08:09 JENISON, MI
Amber Rogers 821 35 01:05:11 08:09 Midland, MI
Jessica Peace 1235 36 01:05:27 08:11 TRAVERSE CITY, MI
Elaina Weber 1060 37 01:05:37 08:13 NEW YORK, NY
Chelsea English 265 38 01:05:38 08:13 TRAVERSE CITY, MI
Ducky Sanders 841 39 01:05:40 08:13 Ludington, MI
Sarah Baumgart 61 40 01:05:49 08:14 ST CLR SHORES, MI
Grace Silva 894 41 01:05:55 08:15 ZEELAND, MI
Shawn Pollman 763 42 01:05:56 08:15 HOWELL, MI
Donna Lay 568 43 01:06:04 08:16 Portland, MI
Kelly Sweeney 980 44 01:06:05 08:16 Denver, CO
Rebecca Vanderwerff 1022 45 01:06:06 08:16 Chicago, IL
Kristi Roznowski 828 46 01:06:10 08:17 Bridgeport, MI
Kirstillyn Pohlman 761 47 01:06:17 08:18 Winthrop Harbor, IL
Brianne Pitchford 754 48 01:06:20 08:18 Caledonia, MI
Julie Black 81 49 01:06:21 08:18 Midland, MI
Kylanna Verret-Kiel 1029 50 01:06:25 08:19 Williamsburg, MI
Carley Young 1119 51 01:06:31 08:19 WAUWATOSA, WI
Malynda Smith 916 52 01:06:58 08:23 WESTPHALIA, MI
Christine Balch 44 53 01:07:14 08:25 CANTON, MI
Danelle Harrington 383 54 01:07:26 08:26 Saginaw, MI
Jenifer Fields 292 55 01:07:27 08:26 HUDSONVILLE, MI
Allison Guitar 370 56 01:07:31 08:27 HARBOR BEACH, MI
Peg Largo 1236 57 01:07:32 08:27 Mackinac Island, MI
Carmen Folk 300 58 01:07:32 08:27 ST CLR SHORES, MI
Cindy Wolfe 1106 59 01:07:37 08:28 KALAMAZOO, MI
Heidi Conrad 173 60 01:07:55 08:30 COLOMA, MI
VERENICE MORALES VALERIO 1158 61 01:07:59 08:30 SAULT STE MARIE, --
Barbara Jewell 465 62 01:08:04 08:31 BURLINGTON, WI
Liza Haugh 391 63 01:08:23 08:33 WATERFORD, MI
Michele Olney 709 64 01:08:26 08:34 Flushing, MI
Dana Simatos 895 65 01:08:27 08:34 BYRON CENTER, MI
Sara Middlebrook 649 66 01:08:33 08:35 Cedar Springs, MI
Jessica Hemingway 401 67 01:08:38 08:35 ROCKFORD, MI
Justina Hautamaki 1218 68 01:08:46 08:36 MARQUETTE, MI
Niki Chamberlain 1310 69 01:08:49 08:37 Cheboygan, MI
Taryn Davis-Hanson 1311 70 01:08:49 08:37 Indian River, MI
Jody Hudmon 435 71 01:08:50 08:37 ROSWELL, GA
Elizabeth Koselka 1284 72 01:08:52 08:37 Chicago, IL
Elisha Boeskool 86 73 01:08:52 08:37 GRAND RAPIDS, MI
Sara Zeller 1122 74 01:08:53 08:37 ONEKAMA, MI
Kelly Wilson 1098 75 01:08:58 08:38 San Diego, CA
Sarah Hinck 416 76 01:09:14 08:40 TRAVERSE CITY, MI
Rebecca Reed 791 77 01:09:16 08:40 TRAVERSE CITY, MI
Jodie Romzek 823 78 01:09:21 08:41 MIDLAND, MI
Ariel Langley 556 79 01:09:35 08:42 CHESTERTON, IN
Kelly Smith 914 80 01:09:39 08:43 EATON RAPIDS, MI
KATIE Potter 767 81 01:09:40 08:43 MANCHESTER, MI
Melissa Marowelli 1229 82 01:09:40 08:43 SALINE, MI
Lacey Brim 107 83 01:09:40 08:43 LANSING, MI
Tracie Granata 1178 84 01:09:42 08:43 Alpena, MI
Sarah Morrison 667 85 01:09:42 08:43 ALPENA, MI
Amy Brege 102 86 01:09:45 08:44 Alpena, MI
Hunter Puma 777 87 01:09:48 08:44 LANSING, MI
Lori Adams 11 88 01:09:52 08:44 TRAVERSE CITY, MI
Tamera Jones 479 89 01:09:58 08:45 Davison, MI
Megan Grezeszak 1294 90 01:09:59 08:45 Cedar, MI
Jaime Christie 151 91 01:10:01 08:46 TIFFIN, OH
sue weiss 1190 92 01:10:01 08:46 FLINT, MI
Jena Laubscher 1153 93 01:10:04 08:46 Breckenridge, MI
Heather Imbault 450 94 01:10:06 08:46 PIERSON, MI
Jamie Stoneman 1172 95 01:10:20 08:48 Wheeler, MI
Janet Stiles 964 96 01:10:21 08:48 LINDEN, MI
Jeb Burns 1202 97 01:10:26 08:49 OKEMOS, MI
Tricia Guerriero 367 98 01:10:27 08:49 Sault Ste. Marie, --
Jeanene Calabrese 134 99 01:10:28 08:49 Winamac, IN
Barb Small 908 100 01:10:32 08:49 -, US

Next Page